,,,PA_Meas_PMT16A,,PR_Meas_QMR101_102,,RH_Meas_QMH101,,SR_Meas_QMS101,,TA_Meas_QMH101,,GenWind,,GenWind,
date,time,status,PA,status,PR,status,RH,status,SR,status,TA,status,DirAvg,status,SpdAvg,
2014-05-22, 00:00:04,VALID,1008.93,VALID,0,INVALID,109.483,VALID,0,VALID,23.5204,VALID,136,VALID,0,
2014-05-22, 00:01:04,VALID,1008.93,VALID,0,INVALID,109.506,VALID,0,VALID,23.4992,VALID,136,VALID,0,
2014-05-22, 00:02:04,VALID,1008.91,VALID,0,INVALID,109.513,VALID,0,VALID,23.5009,VALID,136,VALID,0,
2014-05-22, 00:03:04,VALID,1008.9,VALID,0,INVALID,109.536,VALID,0,VALID,23.4992,VALID,136,VALID,0,
2014-05-22, 00:04:04,VALID,1008.89,VALID,0,INVALID,109.552,VALID,0,VALID,23.4797,VALID,136,VALID,0,
2014-05-22, 00:05:04,VALID,1008.89,VALID,0,INVALID,109.567,VALID,0,VALID,23.4992,VALID,136,VALID,0,
2014-05-22, 00:06:04,VALID,1008.86,VALID,0,INVALID,109.582,VALID,0,VALID,23.4992,VALID,136,VALID,0,
2014-05-22, 00:07:04,VALID,1008.87,VALID,0,INVALID,109.59,VALID,0,VALID,23.5009,VALID,136,VALID,0,
2014-05-22, 00:08:04,VALID,1008.86,VALID,0,INVALID,109.605,VALID,0,VALID,23.4797,VALID,136,VALID,0,
2014-05-22, 00:09:04,VALID,1008.88,VALID,0,INVALID,109.643,VALID,0,VALID,23.4797,VALID,136,VALID,0,
2014-05-22, 00:10:04,VALID,1008.86,VALID,0,INVALID,109.635,VALID,0,VALID,23.4407,VALID,136,VALID,0,
2014-05-22, 00:11:04,VALID,1008.87,VALID,0,INVALID,109.658,VALID,0,VALID,23.4602,VALID,136,VALID,0,
2014-05-22, 00:12:04,VALID,1008.88,VALID,0,INVALID,109.681,VALID,0,VALID,23.4407,VALID,136,VALID,0,
2014-05-22, 00:13:04,VALID,1008.9,VALID,0,INVALID,109.696,VALID,0,VALID,23.4425,VALID,136,VALID,0,
2014-05-22, 00:14:04,VALID,1008.85,VALID,0,INVALID,109.712,VALID,0,VALID,23.4212,VALID,136,VALID,0,
2014-05-22, 00:15:04,VALID,1008.87,VALID,0,INVALID,109.742,VALID,0,VALID,23.4017,VALID,136,VALID,0,
2014-05-22, 00:16:04,VALID,1008.82,VALID,0,INVALID,109.719,VALID,0,VALID,23.423,VALID,136,VALID,0,
2014-05-22, 00:17:04,VALID,1008.78,VALID,0,INVALID,109.735,VALID,0,VALID,23.4017,VALID,136,VALID,0,
2014-05-22, 00:18:04,VALID,1008.76,VALID,0,INVALID,109.742,VALID,0,VALID,23.423,VALID,136,VALID,0,
2014-05-22, 00:19:04,VALID,1008.75,VALID,0,INVALID,109.765,VALID,0,VALID,23.4017,VALID,136,VALID,0,
2014-05-22, 00:20:04,VALID,1008.75,VALID,0,INVALID,109.811,VALID,0,VALID,23.423,VALID,136,VALID,0,
2014-05-22, 00:21:04,VALID,1008.74,VALID,0,INVALID,109.841,VALID,0,VALID,23.423,VALID,136,VALID,0,
2014-05-22, 00:22:04,VALID,1008.78,VALID,0,INVALID,109.834,VALID,0,VALID,23.4017,VALID,136,VALID,0,
2014-05-22, 00:23:04,VALID,1008.79,VALID,0,INVALID,109.857,VALID,0,VALID,23.4017,VALID,136,VALID,0,
2014-05-22, 00:24:04,VALID,1008.75,VALID,0,INVALID,109.887,VALID,0,VALID,23.4017,VALID,136,VALID,0,
2014-05-22, 00:25:04,VALID,1008.73,VALID,0,INVALID,109.887,VALID,0,VALID,23.4017,VALID,136,VALID,0,
2014-05-22, 00:26:04,VALID,1008.71,VALID,0,INVALID,109.902,VALID,0,VALID,23.4017,VALID,136,VALID,0,
2014-05-22, 00:27:04,VALID,1008.71,VALID,0,INVALID,109.918,VALID,0,VALID,23.3823,VALID,136,VALID,0,
2014-05-22, 00:28:04,VALID,1008.67,VALID,0,INVALID,109.918,VALID,0,VALID,23.4017,VALID,136,VALID,0,
2014-05-22, 00:29:04,VALID,1008.67,VALID,0,INVALID,109.979,VALID,0,VALID,23.3433,VALID,136,VALID,0,
2014-05-22, 00:30:04,VALID,1008.66,VALID,0,INVALID,109.979,VALID,0,VALID,23.3238,VALID,136,VALID,0,
2014-05-22, 00:31:04,VALID,1008.63,VALID,0,INVALID,109.986,VALID,0,VALID,23.3043,VALID,136,VALID,0,
2014-05-22, 00:32:04,VALID,1008.61,VALID,0,INVALID,109.994,VALID,0,VALID,23.3043,VALID,136,VALID,0,
2014-05-22, 00:33:04,VALID,1008.63,VALID,0,INVALID,110.001,VALID,0,VALID,23.3043,VALID,136,VALID,0,
2014-05-22, 00:34:04,VALID,1008.61,VALID,0,INVALID,109.994,VALID,0,VALID,23.3043,VALID,136,VALID,0,
2014-05-22, 00:35:04,VALID,1008.62,VALID,0,INVALID,109.979,VALID,0.112112,VALID,23.3043,VALID,136,VALID,0,
2014-05-22, 00:36:04,VALID,1008.62,VALID,0,INVALID,110.024,VALID,0,VALID,23.2866,VALID,136,VALID,0,
2014-05-22, 00:37:04,VALID,1008.6,VALID,0,INVALID,110.047,VALID,0,VALID,23.2848,VALID,136,VALID,0,
2014-05-22, 00:38:04,VALID,1008.62,VALID,0,INVALID,110.032,VALID,0,VALID,23.2654,VALID,136,VALID,0,
2014-05-22, 00:39:04,VALID,1008.63,VALID,0,INVALID,110.055,VALID,0,VALID,23.2476,VALID,136,VALID,0,
2014-05-22, 00:40:04,VALID,1008.63,VALID,0,INVALID,110.032,VALID,0,VALID,23.2459,VALID,136,VALID,0,
2014-05-22, 00:41:04,VALID,1008.61,VALID,0,INVALID,110.024,VALID,0,VALID,23.2654,VALID,136,VALID,0,
2014-05-22, 00:42:04,VALID,1008.61,VALID,0,INVALID,109.986,VALID,0,VALID,23.2866,VALID,136,VALID,0,
2014-05-22, 00:43:04,VALID,1008.59,VALID,0,INVALID,109.979,VALID,0,VALID,23.3043,VALID,136,VALID,0,
2014-05-22, 00:44:04,VALID,1008.6,VALID,0,INVALID,109.994,VALID,0,VALID,23.3043,VALID,136,VALID,0,
2014-05-22, 00:45:04,VALID,1008.57,VALID,0,INVALID,110.017,VALID,0,VALID,23.2848,VALID,136,VALID,0,
2014-05-22, 00:46:04,VALID,1008.55,VALID,0,INVALID,110.032,VALID,0,VALID,23.2459,VALID,136,VALID,0,
2014-05-22, 00:47:04,VALID,1008.54,VALID,0,INVALID,110.063,VALID,0,VALID,23.2264,VALID,136,VALID,0,
2014-05-22, 00:48:04,VALID,1008.53,VALID,0,INVALID,110.101,VALID,0,VALID,23.2069,VALID,136,VALID,0,
2014-05-22, 00:49:04,VALID,1008.5,VALID,0,INVALID,110.131,VALID,0,VALID,23.1874,VALID,136,VALID,0,
2014-05-22, 00:50:04,VALID,1008.47,VALID,0,INVALID,110.116,VALID,0,VALID,23.1679,VALID,136,VALID,0,
2014-05-22, 00:51:04,VALID,1008.45,VALID,0,INVALID,110.108,VALID,0,VALID,23.1485,VALID,136,VALID,0,
2014-05-22, 00:52:04,VALID,1008.44,VALID,0,INVALID,110.108,VALID,0,VALID,23.129,VALID,136,VALID,0,
2014-05-22, 00:53:04,VALID,1008.39,VALID,0,INVALID,110.085,VALID,0,VALID,23.129,VALID,136,VALID,0,
2014-05-22, 00:54:04,VALID,1008.39,VALID,0,INVALID,110.124,VALID,0,VALID,23.1095,VALID,136,VALID,0,
2014-05-22, 00:55:04,VALID,1008.35,VALID,0,INVALID,110.162,VALID,0,VALID,23.1095,VALID,136,VALID,0,
2014-05-22, 00:56:04,VALID,1008.31,VALID,0,INVALID,110.124,VALID,0,VALID,23.09,VALID,136,VALID,0,
2014-05-22, 00:57:04,VALID,1008.33,VALID,0,INVALID,110.124,VALID,0,VALID,23.09,VALID,136,VALID,0,
2014-05-22, 00:58:04,VALID,1008.35,VALID,0,INVALID,110.101,VALID,0,VALID,23.09,VALID,136,VALID,0,
2014-05-22, 00:59:04,VALID,1008.34,VALID,0,INVALID,110.085,VALID,0,VALID,23.0705,VALID,136,VALID,0,
2014-05-22, 01:00:04,VALID,1008.32,VALID,0,INVALID,110.124,VALID,0,VALID,23.0511,VALID,136,VALID,0,
2014-05-22, 01:01:04,VALID,1008.31,VALID,0,INVALID,110.078,VALID,0,VALID,23.0511,VALID,136,VALID,0,
2014-05-22, 01:02:04,VALID,1008.3,VALID,0,INVALID,110.085,VALID,0,VALID,23.0723,VALID,136,VALID,0,
2014-05-22, 01:03:04,VALID,1008.31,VALID,0,INVALID,110.108,VALID,0,VALID,23.0511,VALID,136,VALID,0,
2014-05-22, 01:04:04,VALID,1008.26,VALID,0,INVALID,110.093,VALID,0,VALID,23.0511,VALID,136,VALID,0,
2014-05-22, 01:05:04,VALID,1008.3,VALID,0,INVALID,110.063,VALID,0,VALID,23.0723,VALID,136,VALID,0,
2014-05-22, 01:06:04,VALID,1008.27,VALID,0,INVALID,110.055,VALID,0,VALID,23.0705,VALID,136,VALID,0,
2014-05-22, 01:07:04,VALID,1008.27,VALID,0,INVALID,110.093,VALID,0,VALID,23.0511,VALID,136,VALID,0,
2014-05-22, 01:08:04,VALID,1008.28,VALID,0,INVALID,110.093,VALID,0,VALID,23.0316,VALID,136,VALID,0,
2014-05-22, 01:09:04,VALID,1008.28,VALID,0,INVALID,110.108,VALID,0,VALID,23.0316,VALID,136,VALID,0,
2014-05-22, 01:10:04,VALID,1008.28,VALID,0,INVALID,110.085,VALID,0,VALID,23.0723,VALID,136,VALID,0,
2014-05-22, 01:11:04,VALID,1008.25,VALID,0,INVALID,110.07,VALID,0,VALID,23.0511,VALID,136,VALID,0,
2014-05-22, 01:12:04,VALID,1008.26,VALID,0,INVALID,110.085,VALID,0,VALID,23.0511,VALID,136,VALID,0,
2014-05-22, 01:13:04,VALID,1008.23,VALID,0,INVALID,110.101,VALID,0,VALID,23.0511,VALID,136,VALID,0,
2014-05-22, 01:14:04,VALID,1008.24,VALID,0,INVALID,110.085,VALID,0,VALID,23.0316,VALID,136,VALID,0,
2014-05-22, 01:15:04,VALID,1008.24,VALID,0,INVALID,110.078,VALID,0,VALID,23.0705,VALID,136,VALID,0,
2014-05-22, 01:16:04,VALID,1008.21,VALID,0,INVALID,110.063,VALID,0,VALID,23.0511,VALID,136,VALID,0,
2014-05-22, 01:17:04,VALID,1008.22,VALID,0,INVALID,110.07,VALID,0,VALID,23.0918,VALID,136,VALID,0,
2014-05-22, 01:18:04,VALID,1008.22,VALID,0,INVALID,110.07,VALID,0,VALID,23.0705,VALID,136,VALID,0,
2014-05-22, 01:19:04,VALID,1008.23,VALID,0,INVALID,110.093,VALID,0,VALID,23.0918,VALID,136,VALID,0,
2014-05-22, 01:20:04,VALID,1008.23,VALID,0,INVALID,110.108,VALID,0,VALID,23.0511,VALID,136,VALID,0,
2014-05-22, 01:21:04,VALID,1008.24,VALID,0,INVALID,110.116,VALID,0,VALID,23.0723,VALID,136,VALID,0,
2014-05-22, 01:22:04,VALID,1008.19,VALID,0,INVALID,110.131,VALID,0,VALID,23.0316,VALID,136,VALID,0,
2014-05-22, 01:23:04,VALID,1008.21,VALID,0,INVALID,110.146,VALID,0,VALID,23.0316,VALID,136,VALID,0,
2014-05-22, 01:24:04,VALID,1008.21,VALID,0,INVALID,110.108,VALID,0,VALID,23.0316,VALID,136,VALID,0,
2014-05-22, 01:25:04,VALID,1008.19,VALID,0,INVALID,110.116,VALID,0,VALID,23.0316,VALID,136,VALID,0,
2014-05-22, 01:26:04,VALID,1008.2,VALID,0,INVALID,110.124,VALID,0,VALID,23.0103,VALID,136,VALID,0,
2014-05-22, 01:27:04,VALID,1008.19,VALID,0,INVALID,110.139,VALID,0,VALID,23.0121,VALID,136,VALID,0,
2014-05-22, 01:28:04,VALID,1008.19,VALID,0,INVALID,110.131,VALID,0,VALID,23.0528,VALID,136,VALID,0,
2014-05-22, 01:29:04,VALID,1008.19,VALID,0,INVALID,110.131,VALID,0,VALID,23.0121,VALID,136,VALID,0,
2014-05-22, 01:30:04,VALID,1008.17,VALID,0,INVALID,110.139,VALID,0,VALID,23.0121,VALID,136,VALID,0,
2014-05-22, 01:31:04,VALID,1008.14,VALID,0,INVALID,110.154,VALID,0,VALID,23.0121,VALID,136,VALID,0,
2014-05-22, 01:32:04,VALID,1008.12,VALID,0,INVALID,110.162,VALID,0,VALID,22.9926,VALID,136,VALID,0,
2014-05-22, 01:33:04,VALID,1008.11,VALID,0,INVALID,110.177,VALID,0,VALID,23.0138,VALID,136,VALID,0,
2014-05-22, 01:34:04,VALID,1008.11,VALID,0,INVALID,110.169,VALID,0,VALID,22.9731,VALID,136,VALID,0,
2014-05-22, 01:35:04,VALID,1008.09,VALID,0,INVALID,110.192,VALID,0,VALID,22.9731,VALID,136,VALID,0,
2014-05-22, 01:36:04,VALID,1008.1,VALID,0,INVALID,110.185,VALID,0,VALID,22.9731,VALID,136,VALID,0,
2014-05-22, 01:37:04,VALID,1008.12,VALID,0,INVALID,110.185,VALID,0,VALID,22.9731,VALID,136,VALID,0,
2014-05-22, 01:38:04,VALID,1008.09,VALID,0,INVALID,110.2,VALID,0,VALID,22.9731,VALID,136,VALID,0,
2014-05-22, 01:39:04,VALID,1008.09,VALID,0,INVALID,110.2,VALID,0,VALID,22.9536,VALID,136,VALID,0,
2014-05-22, 01:40:04,VALID,1008.09,VALID,0,INVALID,110.177,VALID,0,VALID,22.9749,VALID,136,VALID,0,
2014-05-22, 01:41:04,VALID,1008.11,VALID,0,INVALID,110.192,VALID,0,VALID,22.9731,VALID,136,VALID,0,
2014-05-22, 01:42:04,VALID,1008.12,VALID,0,INVALID,110.162,VALID,0,VALID,22.9926,VALID,136,VALID,0,
2014-05-22, 01:43:04,VALID,1008.13,VALID,0,INVALID,110.078,VALID,0,VALID,23.0121,VALID,136,VALID,0,
2014-05-22, 01:44:04,VALID,1008.12,VALID,0,INVALID,110.063,VALID,0,VALID,23.0705,VALID,136,VALID,0,
2014-05-22, 01:45:04,VALID,1008.12,VALID,0,INVALID,110.078,VALID,0,VALID,23.09,VALID,136,VALID,0,
2014-05-22, 01:46:04,VALID,1008.11,VALID,0,INVALID,110.108,VALID,0,VALID,23.09,VALID,136,VALID,0,
2014-05-22, 01:47:04,VALID,1008.1,VALID,0,INVALID,110.139,VALID,0,VALID,23.09,VALID,136,VALID,0,
2014-05-22, 01:48:04,VALID,1008.1,VALID,0,INVALID,110.2,VALID,0,VALID,23.0705,VALID,136,VALID,0,
2014-05-22, 01:49:04,VALID,1008.09,VALID,0,INVALID,110.185,VALID,0,VALID,23.0705,VALID,136,VALID,0,
2014-05-22, 01:50:04,VALID,1008.08,VALID,0,INVALID,110.207,VALID,0,VALID,23.0705,VALID,136,VALID,0,
2014-05-22, 01:51:04,VALID,1008.09,VALID,0,INVALID,110.23,VALID,0,VALID,23.0705,VALID,136,VALID,0,
2014-05-22, 01:52:04,VALID,1008.08,VALID,0,INVALID,110.268,VALID,0,VALID,23.0705,VALID,136,VALID,0,
2014-05-22, 01:53:04,VALID,1008.09,VALID,0,INVALID,110.291,VALID,0,VALID,23.0511,VALID,136,VALID,0,
2014-05-22, 01:54:04,VALID,1008.08,VALID,0,INVALID,110.299,VALID,0,VALID,23.0316,VALID,136,VALID,0,
2014-05-22, 01:55:04,VALID,1008.08,VALID,0,INVALID,110.329,VALID,0,VALID,23.0511,VALID,136,VALID,0,
2014-05-22, 01:56:04,VALID,1008.07,VALID,0,INVALID,110.322,VALID,0,VALID,23.0723,VALID,136,VALID,0,
2014-05-22, 01:57:04,VALID,1008.08,VALID,0,INVALID,110.352,VALID,0,VALID,23.0705,VALID,136,VALID,0,
2014-05-22, 01:58:04,VALID,1008.03,VALID,0,INVALID,110.352,VALID,0,VALID,23.0705,VALID,136,VALID,0,
2014-05-22, 01:59:04,VALID,1008.02,VALID,0,INVALID,110.406,VALID,0,VALID,23.0511,VALID,136,VALID,0,
2014-05-22, 02:00:04,VALID,1008,VALID,0,INVALID,110.406,VALID,0,VALID,23.0723,VALID,136,VALID,0,
2014-05-22, 02:01:04,VALID,1007.97,VALID,0,INVALID,110.398,VALID,0,VALID,23.0511,VALID,136,VALID,0,
2014-05-22, 02:02:04,VALID,1007.96,VALID,0,INVALID,110.398,VALID,0,VALID,23.0511,VALID,136,VALID,0,
2014-05-22, 02:03:04,VALID,1007.97,VALID,0,INVALID,110.436,VALID,0,VALID,23.0316,VALID,136,VALID,0,
2014-05-22, 02:04:04,VALID,1007.95,VALID,0,INVALID,110.467,VALID,0,VALID,23.0316,VALID,136,VALID,0,
2014-05-22, 02:05:04,VALID,1007.93,VALID,0,INVALID,110.467,VALID,0,VALID,23.0528,VALID,136,VALID,0,
2014-05-22, 02:06:04,VALID,1007.92,VALID,0,INVALID,110.459,VALID,0,VALID,23.0316,VALID,136,VALID,0,
2014-05-22, 02:07:04,VALID,1007.91,VALID,0,INVALID,110.459,VALID,0,VALID,23.0316,VALID,136,VALID,0,
2014-05-22, 02:08:04,VALID,1007.93,VALID,0,INVALID,110.429,VALID,0,VALID,23.0333,VALID,136,VALID,0,
2014-05-22, 02:09:04,VALID,1007.91,VALID,0,INVALID,110.451,VALID,0,VALID,22.9926,VALID,136,VALID,0,
2014-05-22, 02:10:04,VALID,1007.9,VALID,0,INVALID,110.451,VALID,0,VALID,22.9731,VALID,136,VALID,0,
2014-05-22, 02:11:04,VALID,1007.9,VALID,0,INVALID,110.451,VALID,0,VALID,22.9554,VALID,136,VALID,0,
2014-05-22, 02:12:04,VALID,1007.89,VALID,0,INVALID,110.413,VALID,0,VALID,22.9359,VALID,136,VALID,0,
2014-05-22, 02:13:04,VALID,1007.89,VALID,0,INVALID,110.39,VALID,0,VALID,22.9164,VALID,136,VALID,0,
2014-05-22, 02:14:04,VALID,1007.87,VALID,0,INVALID,110.406,VALID,0,VALID,22.8562,VALID,136,VALID,0,
2014-05-22, 02:15:04,VALID,1007.84,VALID,0,INVALID,110.383,VALID,0,VALID,22.8775,VALID,136,VALID,0,
2014-05-22, 02:16:04,VALID,1007.86,VALID,0,INVALID,110.36,VALID,0,VALID,22.8368,VALID,136,VALID,0,
2014-05-22, 02:17:04,VALID,1007.87,VALID,0,INVALID,110.398,VALID,0,VALID,22.8385,VALID,136,VALID,0,
2014-05-22, 02:18:04,VALID,1007.9,VALID,0,INVALID,110.413,VALID,0,VALID,22.8385,VALID,136,VALID,0,
2014-05-22, 02:19:04,VALID,1007.93,VALID,0,INVALID,110.429,VALID,0,VALID,22.819,VALID,136,VALID,0,
2014-05-22, 02:20:04,VALID,1007.91,VALID,0,INVALID,110.429,VALID,0,VALID,22.8173,VALID,136,VALID,0,
2014-05-22, 02:21:04,VALID,1007.94,VALID,0,INVALID,110.436,VALID,0,VALID,22.7978,VALID,136,VALID,0,
2014-05-22, 02:22:04,VALID,1007.91,VALID,0,INVALID,110.436,VALID,0,VALID,22.7978,VALID,136,VALID,0,
2014-05-22, 02:23:04,VALID,1007.92,VALID,0,INVALID,110.474,VALID,0,VALID,22.7978,VALID,136,VALID,0,
2014-05-22, 02:24:04,VALID,1007.92,VALID,0,INVALID,110.436,VALID,0,VALID,22.7978,VALID,136,VALID,0,
2014-05-22, 02:25:04,VALID,1007.91,VALID,0,INVALID,110.436,VALID,0,VALID,22.7978,VALID,136,VALID,0,
2014-05-22, 02:26:04,VALID,1007.93,VALID,0,INVALID,110.474,VALID,0,VALID,22.8385,VALID,136,VALID,0,
2014-05-22, 02:27:04,VALID,1007.94,VALID,0,INVALID,110.467,VALID,0,VALID,22.8368,VALID,136,VALID,0,
2014-05-22, 02:28:04,VALID,1007.93,VALID,0,INVALID,110.474,VALID,0,VALID,22.858,VALID,136,VALID,0,
2014-05-22, 02:29:04,VALID,1007.93,VALID,0,INVALID,110.436,VALID,0,VALID,22.8562,VALID,136,VALID,0,
2014-05-22, 02:30:04,VALID,1007.93,VALID,0,INVALID,110.474,VALID,0,VALID,22.8562,VALID,136,VALID,0,
2014-05-22, 02:31:04,VALID,1007.94,VALID,0,INVALID,110.49,VALID,0,VALID,22.8562,VALID,136,VALID,0,
2014-05-22, 02:32:04,VALID,1007.92,VALID,0,INVALID,110.505,VALID,0,VALID,22.8775,VALID,136,VALID,0,
2014-05-22, 02:33:04,VALID,1007.92,VALID,0,INVALID,110.482,VALID,0,VALID,22.8775,VALID,136,VALID,0,
2014-05-22, 02:34:04,VALID,1007.94,VALID,0,INVALID,110.497,VALID,0,VALID,22.858,VALID,136,VALID,0,
2014-05-22, 02:35:04,VALID,1007.92,VALID,0,INVALID,110.497,VALID,0,VALID,22.858,VALID,136,VALID,0,
2014-05-22, 02:36:04,VALID,1007.91,VALID,0,INVALID,110.505,VALID,0,VALID,22.858,VALID,136,VALID,0,
2014-05-22, 02:37:04,VALID,1007.87,VALID,0,INVALID,110.474,VALID,0,VALID,22.8368,VALID,136,VALID,0,
2014-05-22, 02:38:04,VALID,1007.85,VALID,0,INVALID,110.52,VALID,0,VALID,22.8368,VALID,136,VALID,0,
2014-05-22, 02:39:04,VALID,1007.82,VALID,0,INVALID,110.482,VALID,0,VALID,22.858,VALID,136,VALID,0,
2014-05-22, 02:40:04,VALID,1007.83,VALID,0,INVALID,110.535,VALID,0,VALID,22.8368,VALID,136,VALID,0,
2014-05-22, 02:41:04,VALID,1007.86,VALID,0,INVALID,110.52,VALID,0,VALID,22.8562,VALID,136,VALID,0,
2014-05-22, 02:42:04,VALID,1007.84,VALID,0,INVALID,110.505,VALID,0,VALID,22.8562,VALID,136,VALID,0,
2014-05-22, 02:43:04,VALID,1007.83,VALID,0,INVALID,110.49,VALID,0,VALID,22.8562,VALID,136,VALID,0,
2014-05-22, 02:44:04,VALID,1007.85,VALID,0,INVALID,110.497,VALID,0,VALID,22.8562,VALID,136,VALID,0,
2014-05-22, 02:45:04,VALID,1007.83,VALID,0,INVALID,110.543,VALID,0,VALID,22.8368,VALID,136,VALID,0,
2014-05-22, 02:46:04,VALID,1007.84,VALID,0,INVALID,110.497,VALID,0.112112,VALID,22.8173,VALID,136,VALID,0,
2014-05-22, 02:47:04,VALID,1007.81,VALID,0,INVALID,110.505,VALID,0,VALID,22.8173,VALID,136,VALID,0,
2014-05-22, 02:48:04,VALID,1007.82,VALID,0,INVALID,110.543,VALID,0,VALID,22.819,VALID,136,VALID,0,
2014-05-22, 02:49:04,VALID,1007.82,VALID,0,INVALID,110.535,VALID,0,VALID,22.7995,VALID,136,VALID,0,
2014-05-22, 02:50:04,VALID,1007.8,VALID,0,INVALID,110.543,VALID,0,VALID,22.78,VALID,136,VALID,0,
2014-05-22, 02:51:04,VALID,1007.79,VALID,0,INVALID,110.528,VALID,0,VALID,22.7606,VALID,136,VALID,0,
2014-05-22, 02:52:04,VALID,1007.78,VALID,0,INVALID,110.543,VALID,0,VALID,22.7394,VALID,136,VALID,0,
2014-05-22, 02:53:04,VALID,1007.79,VALID,0,INVALID,110.535,VALID,0,VALID,22.7606,VALID,136,VALID,0,
2014-05-22, 02:54:04,VALID,1007.8,VALID,0,INVALID,110.52,VALID,0,VALID,22.7394,VALID,136,VALID,0,
2014-05-22, 02:55:04,VALID,1007.8,VALID,0,INVALID,110.566,VALID,0,VALID,22.7199,VALID,136,VALID,0,
2014-05-22, 02:56:04,VALID,1007.8,VALID,0,INVALID,110.558,VALID,0,VALID,22.7199,VALID,136,VALID,0,
2014-05-22, 02:57:04,VALID,1007.79,VALID,0,INVALID,110.581,VALID,0,VALID,22.7411,VALID,136,VALID,0,
2014-05-22, 02:58:04,VALID,1007.79,VALID,0,INVALID,110.558,VALID,0,VALID,22.7216,VALID,136,VALID,0,
2014-05-22, 02:59:04,VALID,1007.77,VALID,0,INVALID,110.596,VALID,0,VALID,22.7004,VALID,136,VALID,0,
2014-05-22, 03:00:04,VALID,1007.76,VALID,0,INVALID,110.604,VALID,0,VALID,22.6809,VALID,136,VALID,0,
2014-05-22, 03:01:04,VALID,1007.76,VALID,0,INVALID,110.612,VALID,0,VALID,22.6614,VALID,136,VALID,0,
2014-05-22, 03:02:04,VALID,1007.76,VALID,0,INVALID,110.634,VALID,0,VALID,22.642,VALID,136,VALID,0,
2014-05-22, 03:03:04,VALID,1007.76,VALID,0,INVALID,110.665,VALID,0,VALID,22.6225,VALID,136,VALID,0,
2014-05-22, 03:04:04,VALID,1007.76,VALID,0,INVALID,110.68,VALID,0,VALID,22.6437,VALID,136,VALID,0,
2014-05-22, 03:05:04,VALID,1007.75,VALID,0,INVALID,110.657,VALID,0,VALID,22.6437,VALID,136,VALID,0,
2014-05-22, 03:06:04,VALID,1007.8,VALID,0,INVALID,110.642,VALID,0,VALID,22.6437,VALID,136,VALID,0,
2014-05-22, 03:07:04,VALID,1007.81,VALID,0,INVALID,110.65,VALID,0,VALID,22.642,VALID,136,VALID,0,
2014-05-22, 03:08:04,VALID,1007.82,VALID,0,INVALID,110.627,VALID,0,VALID,22.6242,VALID,136,VALID,0,
2014-05-22, 03:09:04,VALID,1007.84,VALID,0,INVALID,110.665,VALID,0,VALID,22.6437,VALID,136,VALID,0,
2014-05-22, 03:10:04,VALID,1007.79,VALID,0,INVALID,110.665,VALID,0,VALID,22.6225,VALID,136,VALID,0,
2014-05-22, 03:11:04,VALID,1007.81,VALID,0,INVALID,110.665,VALID,0,VALID,22.6242,VALID,136,VALID,0,
2014-05-22, 03:12:04,VALID,1007.78,VALID,0,INVALID,110.665,VALID,0,VALID,22.603,VALID,136,VALID,0,
2014-05-22, 03:13:04,VALID,1007.8,VALID,0,INVALID,110.665,VALID,0,VALID,22.5835,VALID,136,VALID,0,
2014-05-22, 03:14:04,VALID,1007.82,VALID,0,INVALID,110.68,VALID,0,VALID,22.5835,VALID,136,VALID,0,
2014-05-22, 03:15:04,VALID,1007.79,VALID,0,INVALID,110.695,VALID,0,VALID,22.564,VALID,136,VALID,0,
2014-05-22, 03:16:04,VALID,1007.83,VALID,0,INVALID,110.688,VALID,0,VALID,22.5852,VALID,136,VALID,0,
2014-05-22, 03:17:04,VALID,1007.84,VALID,0,INVALID,110.673,VALID,0,VALID,22.564,VALID,136,VALID,0,
2014-05-22, 03:18:04,VALID,1007.83,VALID,0,INVALID,110.695,VALID,0,VALID,22.5446,VALID,136,VALID,0,
2014-05-22, 03:19:04,VALID,1007.86,VALID,0,INVALID,110.695,VALID,0,VALID,22.5251,VALID,136,VALID,0,
2014-05-22, 03:20:04,VALID,1007.85,VALID,0,INVALID,110.688,VALID,0.112112,VALID,22.5251,VALID,136,VALID,0,
2014-05-22, 03:21:04,VALID,1007.85,VALID,0,INVALID,110.703,VALID,0,VALID,22.4844,VALID,136,VALID,0,
2014-05-22, 03:22:04,VALID,1007.83,VALID,0,INVALID,110.695,VALID,0,VALID,22.5056,VALID,136,VALID,0,
2014-05-22, 03:23:04,VALID,1007.83,VALID,0,INVALID,110.665,VALID,0.112112,VALID,22.5056,VALID,136,VALID,0,
2014-05-22, 03:24:04,VALID,1007.78,VALID,0,INVALID,110.711,VALID,0,VALID,22.4861,VALID,136,VALID,0,
2014-05-22, 03:25:04,VALID,1007.76,VALID,0,INVALID,110.703,VALID,0,VALID,22.4667,VALID,136,VALID,0,
2014-05-22, 03:26:04,VALID,1007.76,VALID,0,INVALID,110.711,VALID,0.112112,VALID,22.4667,VALID,136,VALID,0,
2014-05-22, 03:27:04,VALID,1007.72,VALID,0,INVALID,110.726,VALID,0,VALID,22.4472,VALID,136,VALID,0,
2014-05-22, 03:28:04,VALID,1007.73,VALID,0,INVALID,110.703,VALID,0,VALID,22.4472,VALID,136,VALID,0,
2014-05-22, 03:29:04,VALID,1007.73,VALID,0,INVALID,110.718,VALID,0,VALID,22.4472,VALID,136,VALID,0,
2014-05-22, 03:30:04,VALID,1007.71,VALID,0,INVALID,110.68,VALID,0,VALID,22.4472,VALID,136,VALID,0,
2014-05-22, 03:31:04,VALID,1007.7,VALID,0,INVALID,110.68,VALID,0,VALID,22.4684,VALID,136,VALID,0,
2014-05-22, 03:32:04,VALID,1007.71,VALID,0,INVALID,110.695,VALID,0,VALID,22.4472,VALID,136,VALID,0,
2014-05-22, 03:33:04,VALID,1007.71,VALID,0,INVALID,110.703,VALID,0,VALID,22.4472,VALID,136,VALID,0,
2014-05-22, 03:34:04,VALID,1007.74,VALID,0,INVALID,110.695,VALID,0,VALID,22.4472,VALID,136,VALID,0,
2014-05-22, 03:35:04,VALID,1007.75,VALID,0,INVALID,110.673,VALID,0,VALID,22.4472,VALID,136,VALID,0,
2014-05-22, 03:36:04,VALID,1007.73,VALID,0,INVALID,110.711,VALID,0.112112,VALID,22.4277,VALID,136,VALID,0,
2014-05-22, 03:37:04,VALID,1007.75,VALID,0,INVALID,110.68,VALID,0.112112,VALID,22.426,VALID,136,VALID,0,
2014-05-22, 03:38:04,VALID,1007.73,VALID,0,INVALID,110.718,VALID,0,VALID,22.4472,VALID,136,VALID,0,
2014-05-22, 03:39:04,VALID,1007.75,VALID,0,INVALID,110.688,VALID,0,VALID,22.4277,VALID,136,VALID,0,
2014-05-22, 03:40:04,VALID,1007.78,VALID,0,INVALID,110.711,VALID,0,VALID,22.4082,VALID,136,VALID,0,
2014-05-22, 03:41:04,VALID,1007.76,VALID,0,INVALID,110.718,VALID,0,VALID,22.4277,VALID,136,VALID,0,
2014-05-22, 03:42:04,VALID,1007.78,VALID,0,INVALID,110.711,VALID,0,VALID,22.4082,VALID,136,VALID,0,
2014-05-22, 03:43:04,VALID,1007.78,VALID,0,INVALID,110.741,VALID,0,VALID,22.4082,VALID,136,VALID,0,
2014-05-22, 03:44:04,VALID,1007.78,VALID,0,INVALID,110.741,VALID,0,VALID,22.3887,VALID,136,VALID,0,
2014-05-22, 03:45:04,VALID,1007.79,VALID,0,INVALID,110.734,VALID,0,VALID,22.3693,VALID,136,VALID,0,
2014-05-22, 03:46:04,VALID,1007.75,VALID,0,INVALID,110.741,VALID,0,VALID,22.3498,VALID,136,VALID,0,
2014-05-22, 03:47:04,VALID,1007.75,VALID,0,INVALID,110.749,VALID,0,VALID,22.332,VALID,136,VALID,0,
2014-05-22, 03:48:04,VALID,1007.75,VALID,0,INVALID,110.749,VALID,0,VALID,22.3108,VALID,136,VALID,0,
2014-05-22, 03:49:04,VALID,1007.76,VALID,0,INVALID,110.734,VALID,0,VALID,22.3125,VALID,136,VALID,0,
2014-05-22, 03:50:04,VALID,1007.79,VALID,0,INVALID,110.726,VALID,0,VALID,22.2914,VALID,136,VALID,0,
2014-05-22, 03:51:04,VALID,1007.79,VALID,0,INVALID,110.734,VALID,0,VALID,22.293,VALID,136,VALID,0,
2014-05-22, 03:52:04,VALID,1007.79,VALID,0,INVALID,110.749,VALID,0,VALID,22.2719,VALID,136,VALID,0,
2014-05-22, 03:53:04,VALID,1007.81,VALID,0,INVALID,110.734,VALID,0,VALID,22.2719,VALID,136,VALID,0,
2014-05-22, 03:54:04,VALID,1007.78,VALID,0,INVALID,110.726,VALID,0,VALID,22.293,VALID,136,VALID,0,
2014-05-22, 03:55:04,VALID,1007.78,VALID,0,INVALID,110.688,VALID,0,VALID,22.2914,VALID,136,VALID,0,